owner,sensor,date,latitude,longitude,vertical_datum,wind_speed,wind_to_direction,wind_speed_of_gust,qcFlag 
WAVCIS,ioos:station:WAVCIS:CSI03:3,2011-02-01T00:00:00Z,29.4412,-92.0613,10.0,5.386,128.0,,'11111222,11111222,99999999' 
WAVCIS,ioos:station:WAVCIS:CSI03:3,2011-02-01T01:00:00Z,29.4412,-92.0613,10.0,6.295,147.0,,'11111222,11111222,99999999' 
WAVCIS,ioos:station:WAVCIS:CSI03:3,2011-02-01T02:00:00Z,29.4412,-92.0613,10.0,6.179,126.0,,'11111222,11111222,99999999' 
WAVCIS,ioos:station:WAVCIS:CSI03:3,2011-02-01T03:00:00Z,29.4412,-92.0613,10.0,7.27,133.0,,'11111222,11111222,99999999' 
WAVCIS,ioos:station:WAVCIS:CSI03:3,2011-02-01T04:00:00Z,29.4412,-92.0613,10.0,7.88,130.0,,'11111222,11111222,99999999' 
WAVCIS,ioos:station:WAVCIS:CSI03:3,2011-02-01T05:00:00Z,29.4412,-92.0613,10.0,7.58,134.0,,'11111222,11111222,99999999' 
WAVCIS,ioos:station:WAVCIS:CSI03:3,2011-02-01T06:00:00Z,29.4412,-92.0613,10.0,8.0,135.0,,'11111222,11111222,99999999' 
WAVCIS,ioos:station:WAVCIS:CSI03:3,2011-02-01T07:00:00Z,29.4412,-92.0613,10.0,7.48,128.0,,'11111222,11111222,99999999' 
WAVCIS,ioos:station:WAVCIS:CSI03:3,2011-02-01T08:00:00Z,29.4412,-92.0613,10.0,9.34,127.0,,'11111222,11111222,99999999' 
WAVCIS,ioos:station:WAVCIS:CSI03:3,2011-02-01T09:00:00Z,29.4412,-92.0613,10.0,9.85,130.0,,'11111222,11111222,99999999' 
WAVCIS,ioos:station:WAVCIS:CSI03:3,2011-02-01T10:00:00Z,29.4412,-92.0613,10.0,8.54,134.0,,'11111222,11111222,99999999' 
WAVCIS,ioos:station:WAVCIS:CSI03:3,2011-02-01T11:00:00Z,29.4412,-92.0613,10.0,9.04,135.0,,'11111222,11111222,99999999' 
WAVCIS,ioos:station:WAVCIS:CSI03:3,2011-02-01T12:00:00Z,29.4412,-92.0613,10.0,9.22,136.0,,'11111222,11111222,99999999' 
WAVCIS,ioos:station:WAVCIS:CSI03:3,2011-02-01T13:00:00Z,29.4412,-92.0613,10.0,10.87,145.0,,'11111222,11111222,99999999' 
WAVCIS,ioos:station:WAVCIS:CSI03:3,2011-02-01T14:00:00Z,29.4412,-92.0613,10.0,11.16,150.0,,'11111222,11111222,99999999' 
WAVCIS,ioos:station:WAVCIS:CSI03:3,2011-02-01T15:00:00Z,29.4412,-92.0613,10.0,9.37,159.0,,'11111222,11111222,99999999' 
WAVCIS,ioos:station:WAVCIS:CSI03:3,2011-02-01T16:00:00Z,29.4412,-92.0613,10.0,7.1,169.0,,'11111222,11111222,99999999' 
WAVCIS,ioos:station:WAVCIS:CSI03:3,2011-02-01T17:00:00Z,29.4412,-92.0613,10.0,6.083,181.0,,'11111222,11111222,99999999' 
WAVCIS,ioos:station:WAVCIS:CSI03:3,2011-02-01T18:00:00Z,29.4412,-92.0613,10.0,4.136,189.0,,'11111222,11111222,99999999' 
WAVCIS,ioos:station:WAVCIS:CSI03:3,2011-02-01T19:00:00Z,29.4412,-92.0613,10.0,7.52,316.0,,'11111222,11111222,99999999' 
WAVCIS,ioos:station:WAVCIS:CSI03:3,2011-02-01T20:00:00Z,29.4412,-92.0613,10.0,12.26,314.0,,'11111222,11111222,99999999' 
WAVCIS,ioos:station:WAVCIS:CSI03:3,2011-02-01T21:00:00Z,29.4412,-92.0613,10.0,10.83,314.0,,'11111222,11111222,99999999' 
WAVCIS,ioos:station:WAVCIS:CSI03:3,2011-02-01T22:00:00Z,29.4412,-92.0613,10.0,11.06,322.0,,'11111222,11111222,99999999' 
WAVCIS,ioos:station:WAVCIS:CSI03:3,2011-02-01T23:00:00Z,29.4412,-92.0613,10.0,12.13,326.0,,'11111222,11111222,99999999' 
WAVCIS,ioos:station:WAVCIS:CSI03:3,2011-02-02T00:00:00Z,29.4412,-92.0613,10.0,10.5,322.0,,'11111222,11111222,99999999' 
WAVCIS,ioos:station:WAVCIS:CSI03:3,2011-02-02T01:00:00Z,29.4412,-92.0613,10.0,10.36,328.0,,'11111222,11111222,99999999' 
WAVCIS,ioos:station:WAVCIS:CSI03:3,2011-02-02T02:00:00Z,29.4412,-92.0613,10.0,11.87,329.0,,'11111222,11111222,99999999' 
WAVCIS,ioos:station:WAVCIS:CSI03:3,2011-02-02T03:00:00Z,29.4412,-92.0613,10.0,14.18,332.0,,'11111222,11111222,99999999' 
WAVCIS,ioos:station:WAVCIS:CSI03:3,2011-02-02T04:00:00Z,29.4412,-92.0613,10.0,12.3,337.0,,'11111222,11111222,99999999' 
WAVCIS,ioos:station:WAVCIS:CSI03:3,2011-02-02T05:00:00Z,29.4412,-92.0613,10.0,11.91,345.0,,'11111222,11111222,99999999' 
WAVCIS,ioos:station:WAVCIS:CSI03:3,2011-02-02T06:00:00Z,29.4412,-92.0613,10.0,9.91,356.0,,'11111222,11111222,99999999' 
WAVCIS,ioos:station:WAVCIS:CSI03:3,2011-02-02T07:00:00Z,29.4412,-92.0613,10.0,9.09,11.0,,'11111222,11111222,99999999' 
WAVCIS,ioos:station:WAVCIS:CSI03:3,2011-02-02T08:00:00Z,29.4412,-92.0613,10.0,8.49,16.0,,'11111222,11111222,99999999' 
WAVCIS,ioos:station:WAVCIS:CSI03:3,2011-02-02T09:00:00Z,29.4412,-92.0613,10.0,9.23,10.0,,'11111222,11111222,99999999' 
WAVCIS,ioos:station:WAVCIS:CSI03:3,2011-02-02T10:00:00Z,29.4412,-92.0613,10.0,7.45,5.0,,'11111222,11111222,99999999' 
WAVCIS,ioos:station:WAVCIS:CSI03:3,2011-02-02T11:00:00Z,29.4412,-92.0613,10.0,8.12,359.0,,'11111222,11111222,99999999' 
WAVCIS,ioos:station:WAVCIS:CSI03:3,2011-02-02T12:00:00Z,29.4412,-92.0613,10.0,9.65,1.0,,'11111222,11111222,99999999' 
WAVCIS,ioos:station:WAVCIS:CSI03:3,2011-02-02T13:00:00Z,29.4412,-92.0613,10.0,9.26,359.0,,'11111222,11111222,99999999' 
WAVCIS,ioos:station:WAVCIS:CSI03:3,2011-02-02T14:00:00Z,29.4412,-92.0613,10.0,10.0,4.0,,'11111222,11111222,99999999' 
WAVCIS,ioos:station:WAVCIS:CSI03:3,2011-02-02T15:00:00Z,29.4412,-92.0613,10.0,9.81,0.0,,'11111222,11111222,99999999' 
WAVCIS,ioos:station:WAVCIS:CSI03:3,2011-02-02T16:00:00Z,29.4412,-92.0613,10.0,9.33,6.0,,'11111222,11111222,99999999' 
WAVCIS,ioos:station:WAVCIS:CSI03:3,2011-02-02T17:00:00Z,29.4412,-92.0613,10.0,8.81,12.0,,'11111222,11111222,99999999' 
WAVCIS,ioos:station:WAVCIS:CSI03:3,2011-02-02T18:00:00Z,29.4412,-92.0613,10.0,8.01,17.0,,'11111222,11111222,99999999' 
WAVCIS,ioos:station:WAVCIS:CSI03:3,2011-02-02T19:00:00Z,29.4412,-92.0613,10.0,7.45,19.0,,'11111222,11111222,99999999' 
WAVCIS,ioos:station:WAVCIS:CSI03:3,2011-02-02T20:00:00Z,29.4412,-92.0613,10.0,7.02,22.0,,'11111222,11111222,99999999' 
WAVCIS,ioos:station:WAVCIS:CSI03:3,2011-02-02T21:00:00Z,29.4412,-92.0613,10.0,8.61,10.0,,'11111222,11111222,99999999' 
WAVCIS,ioos:station:WAVCIS:CSI03:3,2011-02-02T22:00:00Z,29.4412,-92.0613,10.0,8.03,17.0,,'11111222,11111222,99999999' 
WAVCIS,ioos:station:WAVCIS:CSI03:3,2011-02-02T23:00:00Z,29.4412,-92.0613,10.0,7.4,21.0,,'11111222,11111222,99999999' 
WAVCIS,ioos:station:WAVCIS:CSI03:3,2011-02-03T00:00:00Z,29.4412,-92.0613,10.0,7.32,24.0,,'11111222,11111222,99999999' 
WAVCIS,ioos:station:WAVCIS:CSI03:3,2011-02-03T01:00:00Z,29.4412,-92.0613,10.0,8.23,21.0,,'11111222,11111222,99999999' 
WAVCIS,ioos:station:WAVCIS:CSI03:3,2011-02-03T02:00:00Z,29.4412,-92.0613,10.0,7.62,27.0,,'11111222,11111222,99999999' 
WAVCIS,ioos:station:WAVCIS:CSI03:3,2011-02-03T03:00:00Z,29.4412,-92.0613,10.0,7.22,30.0,,'11111222,11111222,99999999' 
WAVCIS,ioos:station:WAVCIS:CSI03:3,2011-02-03T04:00:00Z,29.4412,-92.0613,10.0,6.473,33.0,,'11111222,11111222,99999999' 
WAVCIS,ioos:station:WAVCIS:CSI03:3,2011-02-03T05:00:00Z,29.4412,-92.0613,10.0,5.442,38.0,,'11111222,11111222,99999999' 
WAVCIS,ioos:station:WAVCIS:CSI03:3,2011-02-03T06:00:00Z,29.4412,-92.0613,10.0,5.46,39.0,,'11111222,11111222,99999999' 
WAVCIS,ioos:station:WAVCIS:CSI03:3,2011-02-03T07:00:00Z,29.4412,-92.0613,10.0,5.475,31.0,,'11111222,11111222,99999999' 
WAVCIS,ioos:station:WAVCIS:CSI03:3,2011-02-03T08:00:00Z,29.4412,-92.0613,10.0,6.105,43.0,,'11111222,11111222,99999999' 
WAVCIS,ioos:station:WAVCIS:CSI03:3,2011-02-03T09:00:00Z,29.4412,-92.0613,10.0,7.98,54.0,,'11111222,11111222,99999999' 
WAVCIS,ioos:station:WAVCIS:CSI03:3,2011-02-03T10:00:00Z,29.4412,-92.0613,10.0,4.657,38.0,,'11111222,11111222,99999999' 
WAVCIS,ioos:station:WAVCIS:CSI03:3,2011-02-03T11:00:00Z,29.4412,-92.0613,10.0,5.648,27.0,,'11111222,11111222,99999999' 
WAVCIS,ioos:station:WAVCIS:CSI03:3,2011-02-03T12:00:00Z,29.4412,-92.0613,10.0,6.277,49.0,,'11111222,11111222,99999999' 
WAVCIS,ioos:station:WAVCIS:CSI03:3,2011-02-03T13:00:00Z,29.4412,-92.0613,10.0,6.607,53.0,,'11111222,11111222,99999999' 
WAVCIS,ioos:station:WAVCIS:CSI03:3,2011-02-03T14:00:00Z,29.4412,-92.0613,10.0,5.925,48.0,,'11111222,11111222,99999999' 
WAVCIS,ioos:station:WAVCIS:CSI03:3,2011-02-03T15:00:00Z,29.4412,-92.0613,10.0,5.693,50.0,,'11111222,11111222,99999999' 
WAVCIS,ioos:station:WAVCIS:CSI03:3,2011-02-03T16:00:00Z,29.4412,-92.0613,10.0,4.432,40.0,,'11111222,11111222,99999999' 
WAVCIS,ioos:station:WAVCIS:CSI03:3,2011-02-03T17:00:00Z,29.4412,-92.0613,10.0,4.39,36.0,,'11111222,11111222,99999999' 
WAVCIS,ioos:station:WAVCIS:CSI03:3,2011-02-03T18:00:00Z,29.4412,-92.0613,10.0,5.89,21.0,,'11111222,11111222,99999999' 
WAVCIS,ioos:station:WAVCIS:CSI03:3,2011-02-03T19:00:00Z,29.4412,-92.0613,10.0,6.515,49.0,,'11111222,11111222,99999999' 
WAVCIS,ioos:station:WAVCIS:CSI03:3,2011-02-03T20:00:00Z,29.4412,-92.0613,10.0,5.954,49.0,,'11111222,11111222,99999999' 
WAVCIS,ioos:station:WAVCIS:CSI03:3,2011-02-03T21:00:00Z,29.4412,-92.0613,10.0,6.316,24.0,,'11111222,11111222,99999999' 
WAVCIS,ioos:station:WAVCIS:CSI03:3,2011-02-03T22:00:00Z,29.4412,-92.0613,10.0,5.344,39.0,,'11111222,11111222,99999999' 
WAVCIS,ioos:station:WAVCIS:CSI03:3,2011-02-03T23:00:00Z,29.4412,-92.0613,10.0,5.888,26.0,,'11111222,11111222,99999999' 
WAVCIS,ioos:station:WAVCIS:CSI03:3,2011-02-04T00:00:00Z,29.4412,-92.0613,10.0,5.797,24.0,,'11111222,11111222,99999999' 
WAVCIS,ioos:station:WAVCIS:CSI03:3,2011-02-04T01:00:00Z,29.4412,-92.0613,10.0,5.74,48.0,,'11111222,11111222,99999999' 
WAVCIS,ioos:station:WAVCIS:CSI03:3,2011-02-04T02:00:00Z,29.4412,-92.0613,10.0,6.961,53.0,,'11111222,11111222,99999999' 
WAVCIS,ioos:station:WAVCIS:CSI03:3,2011-02-04T03:00:00Z,29.4412,-92.0613,10.0,7.26,54.0,,'11111222,11111222,99999999' 
WAVCIS,ioos:station:WAVCIS:CSI03:3,2011-02-04T04:00:00Z,29.4412,-92.0613,10.0,7.14,54.0,,'11111222,11111222,99999999' 
WAVCIS,ioos:station:WAVCIS:CSI03:3,2011-02-04T05:00:00Z,29.4412,-92.0613,10.0,5.313,49.0,,'11111222,11111222,99999999' 
WAVCIS,ioos:station:WAVCIS:CSI03:3,2011-02-04T06:00:00Z,29.4412,-92.0613,10.0,5.704,48.0,,'11111222,11111222,99999999' 
WAVCIS,ioos:station:WAVCIS:CSI03:3,2011-02-04T07:00:00Z,29.4412,-92.0613,10.0,5.752,51.0,,'11111222,11111222,99999999' 
WAVCIS,ioos:station:WAVCIS:CSI03:3,2011-02-04T08:00:00Z,29.4412,-92.0613,10.0,5.719,53.0,,'11111222,11111222,99999999' 
WAVCIS,ioos:station:WAVCIS:CSI03:3,2011-02-04T09:00:00Z,29.4412,-92.0613,10.0,4.304,35.0,,'11111222,11111222,99999999' 
WAVCIS,ioos:station:WAVCIS:CSI03:3,2011-02-04T10:00:00Z,29.4412,-92.0613,10.0,5.806,11.0,,'11111222,11111222,99999999' 
WAVCIS,ioos:station:WAVCIS:CSI03:3,2011-02-04T11:00:00Z,29.4412,-92.0613,10.0,6.025,4.0,,'11111222,11111222,99999999' 
WAVCIS,ioos:station:WAVCIS:CSI03:3,2011-02-04T12:00:00Z,29.4412,-92.0613,10.0,6.392,13.0,,'11111222,11111222,99999999' 
WAVCIS,ioos:station:WAVCIS:CSI03:3,2011-02-04T13:00:00Z,29.4412,-92.0613,10.0,6.218,6.0,,'11111222,11111222,99999999' 
WAVCIS,ioos:station:WAVCIS:CSI03:3,2011-02-04T14:00:00Z,29.4412,-92.0613,10.0,6.97,2.0,,'11111222,11111222,99999999' 
WAVCIS,ioos:station:WAVCIS:CSI03:3,2011-02-04T15:00:00Z,29.4412,-92.0613,10.0,6.421,3.0,,'11111222,11111222,99999999' 
WAVCIS,ioos:station:WAVCIS:CSI03:3,2011-02-04T16:00:00Z,29.4412,-92.0613,10.0,9.22,347.0,,'11111222,11111222,99999999' 
WAVCIS,ioos:station:WAVCIS:CSI03:3,2011-02-04T17:00:00Z,29.4412,-92.0613,10.0,5.425,2.0,,'11111222,11111222,99999999' 
WAVCIS,ioos:station:WAVCIS:CSI03:3,2011-02-04T18:00:00Z,29.4412,-92.0613,10.0,8.0,336.0,,'11111222,11111222,99999999' 
WAVCIS,ioos:station:WAVCIS:CSI03:3,2011-02-04T19:00:00Z,29.4412,-92.0613,10.0,8.24,343.0,,'11111222,11111222,99999999' 
WAVCIS,ioos:station:WAVCIS:CSI03:3,2011-02-04T20:00:00Z,29.4412,-92.0613,10.0,6.607,332.0,,'11111222,11111222,99999999' 
WAVCIS,ioos:station:WAVCIS:CSI03:3,2011-02-04T21:00:00Z,29.4412,-92.0613,10.0,6.565,320.0,,'11111222,11111222,99999999' 
WAVCIS,ioos:station:WAVCIS:CSI03:3,2011-02-04T22:00:00Z,29.4412,-92.0613,10.0,7.11,321.0,,'11111222,11111222,99999999' 
WAVCIS,ioos:station:WAVCIS:CSI03:3,2011-02-04T23:00:00Z,29.4412,-92.0613,10.0,6.724,318.0,,'11111222,11111222,99999999' 
WAVCIS,ioos:station:WAVCIS:CSI03:3,2011-02-05T00:00:00Z,29.4412,-92.0613,10.0,5.936,319.0,,'11111222,11111222,99999999' 
WAVCIS,ioos:station:WAVCIS:CSI03:3,2011-02-05T01:00:00Z,29.4412,-92.0613,10.0,6.535,316.0,,'11111222,11111222,99999999' 
WAVCIS,ioos:station:WAVCIS:CSI03:3,2011-02-05T02:00:00Z,29.4412,-92.0613,10.0,5.847,312.0,,'11111222,11111222,99999999' 
WAVCIS,ioos:station:WAVCIS:CSI03:3,2011-02-05T03:00:00Z,29.4412,-92.0613,10.0,5.228,311.0,,'11111222,11111222,99999999' 
WAVCIS,ioos:station:WAVCIS:CSI03:3,2011-02-05T04:00:00Z,29.4412,-92.0613,10.0,6.54,309.0,,'11111222,11111222,99999999' 
WAVCIS,ioos:station:WAVCIS:CSI03:3,2011-02-05T05:00:00Z,29.4412,-92.0613,10.0,7.16,317.0,,'11111222,11111222,99999999' 
WAVCIS,ioos:station:WAVCIS:CSI03:3,2011-02-05T06:00:00Z,29.4412,-92.0613,10.0,8.24,316.0,,'11111222,11111222,99999999' 
WAVCIS,ioos:station:WAVCIS:CSI03:3,2011-02-05T07:00:00Z,29.4412,-92.0613,10.0,5.683,305.0,,'11111222,11111222,99999999' 
WAVCIS,ioos:station:WAVCIS:CSI03:3,2011-02-05T08:00:00Z,29.4412,-92.0613,10.0,6.316,325.0,,'11111222,11111222,99999999' 
WAVCIS,ioos:station:WAVCIS:CSI03:3,2011-02-05T09:00:00Z,29.4412,-92.0613,10.0,7.75,326.0,,'11111222,11111222,99999999' 
WAVCIS,ioos:station:WAVCIS:CSI03:3,2011-02-05T10:00:00Z,29.4412,-92.0613,10.0,7.18,325.0,,'11111222,11111222,99999999' 
WAVCIS,ioos:station:WAVCIS:CSI03:3,2011-02-05T11:00:00Z,29.4412,-92.0613,10.0,6.38,323.0,,'11111222,11111222,99999999' 
WAVCIS,ioos:station:WAVCIS:CSI03:3,2011-02-05T12:00:00Z,29.4412,-92.0613,10.0,3.08,303.0,,'11111222,11111222,99999999' 
WAVCIS,ioos:station:WAVCIS:CSI03:3,2011-02-05T13:00:00Z,29.4412,-92.0613,10.0,4.581,320.0,,'11111222,11111222,99999999' 
WAVCIS,ioos:station:WAVCIS:CSI03:3,2011-02-05T14:00:00Z,29.4412,-92.0613,10.0,1.972,270.0,,'11111222,11111222,99999999' 
WAVCIS,ioos:station:WAVCIS:CSI03:3,2011-02-05T15:00:00Z,29.4412,-92.0613,10.0,1.46,270.0,,'11111222,11111222,99999999' 
WAVCIS,ioos:station:WAVCIS:CSI03:3,2011-02-05T16:00:00Z,29.4412,-92.0613,10.0,0.84,269.0,,'11111222,11111222,99999999' 
WAVCIS,ioos:station:WAVCIS:CSI03:3,2011-02-05T17:00:00Z,29.4412,-92.0613,10.0,0.271,269.0,,'11111222,11111222,99999999' 
WAVCIS,ioos:station:WAVCIS:CSI03:3,2011-02-05T18:00:00Z,29.4412,-92.0613,10.0,0.717,354.0,,'11111222,11111222,99999999' 
WAVCIS,ioos:station:WAVCIS:CSI03:3,2011-02-05T19:00:00Z,29.4412,-92.0613,10.0,1.244,184.0,,'11111222,11111222,99999999' 
WAVCIS,ioos:station:WAVCIS:CSI03:3,2011-02-05T20:00:00Z,29.4412,-92.0613,10.0,3.899,146.0,,'11111222,11111222,99999999' 
WAVCIS,ioos:station:WAVCIS:CSI03:3,2011-02-05T21:00:00Z,29.4412,-92.0613,10.0,2.962,169.0,,'11111222,11111222,99999999' 
WAVCIS,ioos:station:WAVCIS:CSI03:3,2011-02-05T22:00:00Z,29.4412,-92.0613,10.0,3.018,164.0,,'11111222,11111222,99999999' 
WAVCIS,ioos:station:WAVCIS:CSI03:3,2011-02-05T23:00:00Z,29.4412,-92.0613,10.0,1.024,229.0,,'11111222,11111222,99999999' 
WAVCIS,ioos:station:WAVCIS:CSI03:3,2011-02-06T00:00:00Z,29.4412,-92.0613,10.0,3.916,145.0,,'11111222,11111222,99999999' 
WAVCIS,ioos:station:WAVCIS:CSI03:3,2011-02-06T01:00:00Z,29.4412,-92.0613,10.0,4.43,150.0,,'11111222,11111222,99999999' 
WAVCIS,ioos:station:WAVCIS:CSI03:3,2011-02-06T02:00:00Z,29.4412,-92.0613,10.0,4.587,150.0,,'11111222,11111222,99999999' 
WAVCIS,ioos:station:WAVCIS:CSI03:3,2011-02-06T03:00:00Z,29.4412,-92.0613,10.0,5.071,151.0,,'11111222,11111222,99999999' 
WAVCIS,ioos:station:WAVCIS:CSI03:3,2011-02-06T04:00:00Z,29.4412,-92.0613,10.0,5.054,151.0,,'11111222,11111222,99999999' 
WAVCIS,ioos:station:WAVCIS:CSI03:3,2011-02-06T05:00:00Z,29.4412,-92.0613,10.0,4.407,145.0,,'11111222,11111222,99999999' 
WAVCIS,ioos:station:WAVCIS:CSI03:3,2011-02-06T06:00:00Z,29.4412,-92.0613,10.0,4.378,145.0,,'11111222,11111222,99999999' 
WAVCIS,ioos:station:WAVCIS:CSI03:3,2011-02-06T07:00:00Z,29.4412,-92.0613,10.0,5.92,143.0,,'11111222,11111222,99999999' 
WAVCIS,ioos:station:WAVCIS:CSI03:3,2011-02-06T08:00:00Z,29.4412,-92.0613,10.0,5.589,153.0,,'11111222,11111222,99999999' 
WAVCIS,ioos:station:WAVCIS:CSI03:3,2011-02-06T09:00:00Z,29.4412,-92.0613,10.0,3.966,142.0,,'11111222,11111222,99999999' 
WAVCIS,ioos:station:WAVCIS:CSI03:3,2011-02-06T10:00:00Z,29.4412,-92.0613,10.0,4.629,139.0,,'11111222,11111222,99999999' 
WAVCIS,ioos:station:WAVCIS:CSI03:3,2011-02-06T11:00:00Z,29.4412,-92.0613,10.0,3.937,116.0,,'11111222,11111222,99999999' 
WAVCIS,ioos:station:WAVCIS:CSI03:3,2011-02-06T12:00:00Z,29.4412,-92.0613,10.0,3.34,119.0,,'11111222,11111222,99999999' 
WAVCIS,ioos:station:WAVCIS:CSI03:3,2011-02-06T13:00:00Z,29.4412,-92.0613,10.0,3.087,109.0,,'11111222,11111222,99999999' 
WAVCIS,ioos:station:WAVCIS:CSI03:3,2011-02-06T14:00:00Z,29.4412,-92.0613,10.0,3.577,114.0,,'11111222,11111222,99999999' 
WAVCIS,ioos:station:WAVCIS:CSI03:3,2011-02-06T15:00:00Z,29.4412,-92.0613,10.0,4.682,121.0,,'11111222,11111222,99999999' 
WAVCIS,ioos:station:WAVCIS:CSI03:3,2011-02-06T16:00:00Z,29.4412,-92.0613,10.0,5.827,119.0,,'11111222,11111222,99999999' 
WAVCIS,ioos:station:WAVCIS:CSI03:3,2011-02-06T17:00:00Z,29.4412,-92.0613,10.0,5.609,128.0,,'11111222,11111222,99999999' 
WAVCIS,ioos:station:WAVCIS:CSI03:3,2011-02-06T18:00:00Z,29.4412,-92.0613,10.0,4.995,130.0,,'11111222,11111222,99999999' 
WAVCIS,ioos:station:WAVCIS:CSI03:3,2011-02-06T19:00:00Z,29.4412,-92.0613,10.0,5.083,136.0,,'11111222,11111222,99999999' 
WAVCIS,ioos:station:WAVCIS:CSI03:3,2011-02-06T20:00:00Z,29.4412,-92.0613,10.0,6.204,132.0,,'11111222,11111222,99999999' 
WAVCIS,ioos:station:WAVCIS:CSI03:3,2011-02-06T21:00:00Z,29.4412,-92.0613,10.0,7.13,119.0,,'11111222,11111222,99999999' 
WAVCIS,ioos:station:WAVCIS:CSI03:3,2011-02-06T22:00:00Z,29.4412,-92.0613,10.0,8.82,123.0,,'11111222,11111222,99999999' 
WAVCIS,ioos:station:WAVCIS:CSI03:3,2011-02-06T23:00:00Z,29.4412,-92.0613,10.0,7.86,127.0,,'11111222,11111222,99999999' 
WAVCIS,ioos:station:WAVCIS:CSI03:3,2011-02-07T00:00:00Z,29.4412,-92.0613,10.0,7.5,128.0,,'11111222,11111222,99999999' 
WAVCIS,ioos:station:WAVCIS:CSI03:3,2011-02-07T01:00:00Z,29.4412,-92.0613,10.0,6.448,119.0,,'11111222,11111222,99999999' 
WAVCIS,ioos:station:WAVCIS:CSI03:3,2011-02-07T02:00:00Z,29.4412,-92.0613,10.0,7.9,137.0,,'11111222,11111222,99999999' 
WAVCIS,ioos:station:WAVCIS:CSI03:3,2011-02-07T03:00:00Z,29.4412,-92.0613,10.0,5.933,135.0,,'11111222,11111222,99999999' 
WAVCIS,ioos:station:WAVCIS:CSI03:3,2011-02-07T04:00:00Z,29.4412,-92.0613,10.0,7.61,147.0,,'11111222,11111222,99999999' 
WAVCIS,ioos:station:WAVCIS:CSI03:3,2011-02-07T05:00:00Z,29.4412,-92.0613,10.0,5.583,157.0,,'11111222,11111222,99999999' 
WAVCIS,ioos:station:WAVCIS:CSI03:3,2011-02-07T06:00:00Z,29.4412,-92.0613,10.0,4.858,176.0,,'11111222,11111222,99999999' 
WAVCIS,ioos:station:WAVCIS:CSI03:3,2011-02-07T07:00:00Z,29.4412,-92.0613,10.0,3.802,189.0,,'11111222,11111222,99999999' 
WAVCIS,ioos:station:WAVCIS:CSI03:3,2011-02-07T08:00:00Z,29.4412,-92.0613,10.0,3.44,200.0,,'11111222,11111222,99999999' 
WAVCIS,ioos:station:WAVCIS:CSI03:3,2011-02-07T09:00:00Z,29.4412,-92.0613,10.0,6.417,287.0,,'11111222,11111222,99999999' 
WAVCIS,ioos:station:WAVCIS:CSI03:3,2011-02-07T10:00:00Z,29.4412,-92.0613,10.0,5.282,287.0,,'11111222,11111222,99999999' 
WAVCIS,ioos:station:WAVCIS:CSI03:3,2011-02-07T11:00:00Z,29.4412,-92.0613,10.0,8.05,318.0,,'11111222,11111222,99999999' 
WAVCIS,ioos:station:WAVCIS:CSI03:3,2011-02-07T12:00:00Z,29.4412,-92.0613,10.0,8.96,322.0,,'11111222,11111222,99999999' 
WAVCIS,ioos:station:WAVCIS:CSI03:3,2011-02-07T13:00:00Z,29.4412,-92.0613,10.0,11.09,317.0,,'11111222,11111222,99999999' 
WAVCIS,ioos:station:WAVCIS:CSI03:3,2011-02-07T14:00:00Z,29.4412,-92.0613,10.0,11.47,318.0,,'11111222,11111222,99999999' 
WAVCIS,ioos:station:WAVCIS:CSI03:3,2011-02-07T15:00:00Z,29.4412,-92.0613,10.0,10.65,322.0,,'11111222,11111222,99999999' 
WAVCIS,ioos:station:WAVCIS:CSI03:3,2011-02-07T16:00:00Z,29.4412,-92.0613,10.0,11.22,322.0,,'11111222,11111222,99999999' 
WAVCIS,ioos:station:WAVCIS:CSI03:3,2011-02-07T17:00:00Z,29.4412,-92.0613,10.0,12.25,330.0,,'11111222,11111222,99999999' 
WAVCIS,ioos:station:WAVCIS:CSI03:3,2011-02-07T18:00:00Z,29.4412,-92.0613,10.0,10.75,322.0,,'11111222,11111222,99999999' 
WAVCIS,ioos:station:WAVCIS:CSI03:3,2011-02-07T19:00:00Z,29.4412,-92.0613,10.0,10.76,324.0,,'11111222,11111222,99999999' 
WAVCIS,ioos:station:WAVCIS:CSI03:3,2011-02-07T20:00:00Z,29.4412,-92.0613,10.0,9.83,330.0,,'11111222,11111222,99999999' 
WAVCIS,ioos:station:WAVCIS:CSI03:3,2011-02-07T21:00:00Z,29.4412,-92.0613,10.0,9.33,339.0,,'11111222,11111222,99999999' 
WAVCIS,ioos:station:WAVCIS:CSI03:3,2011-02-07T22:00:00Z,29.4412,-92.0613,10.0,8.92,349.0,,'11111222,11111222,99999999' 
WAVCIS,ioos:station:WAVCIS:CSI03:3,2011-02-07T23:00:00Z,29.4412,-92.0613,10.0,6.43,357.0,,'11111222,11111222,99999999' 
WAVCIS,ioos:station:WAVCIS:CSI03:3,2011-02-08T00:00:00Z,29.4412,-92.0613,10.0,5.558,7.0,,'11111222,11111222,99999999' 
WAVCIS,ioos:station:WAVCIS:CSI03:3,2011-02-08T01:00:00Z,29.4412,-92.0613,10.0,6.116,21.0,,'11111222,11111222,99999999' 
WAVCIS,ioos:station:WAVCIS:CSI03:3,2011-02-08T02:00:00Z,29.4412,-92.0613,10.0,6.723,56.0,,'11111222,11111222,99999999' 
WAVCIS,ioos:station:WAVCIS:CSI03:3,2011-02-08T03:00:00Z,29.4412,-92.0613,10.0,6.016,54.0,,'11111222,11111222,99999999' 
WAVCIS,ioos:station:WAVCIS:CSI03:3,2011-02-08T04:00:00Z,29.4412,-92.0613,10.0,6.46,55.0,,'11111222,11111222,99999999' 
WAVCIS,ioos:station:WAVCIS:CSI03:3,2011-02-08T05:00:00Z,29.4412,-92.0613,10.0,5.4,54.0,,'11111222,11111222,99999999' 
WAVCIS,ioos:station:WAVCIS:CSI03:3,2011-02-08T06:00:00Z,29.4412,-92.0613,10.0,5.519,56.0,,'11111222,11111222,99999999' 
WAVCIS,ioos:station:WAVCIS:CSI03:3,2011-02-08T07:00:00Z,29.4412,-92.0613,10.0,4.554,55.0,,'11111222,11111222,99999999' 
WAVCIS,ioos:station:WAVCIS:CSI03:3,2011-02-08T08:00:00Z,29.4412,-92.0613,10.0,4.276,67.0,,'11111222,11111222,99999999' 
WAVCIS,ioos:station:WAVCIS:CSI03:3,2011-02-08T09:00:00Z,29.4412,-92.0613,10.0,3.83,79.0,,'11111222,11111222,99999999' 
WAVCIS,ioos:station:WAVCIS:CSI03:3,2011-02-08T10:00:00Z,29.4412,-92.0613,10.0,4.213,64.0,,'11111222,11111222,99999999' 
WAVCIS,ioos:station:WAVCIS:CSI03:3,2011-02-08T11:00:00Z,29.4412,-92.0613,10.0,4.009,71.0,,'11111222,11111222,99999999' 
WAVCIS,ioos:station:WAVCIS:CSI03:3,2011-02-08T12:00:00Z,29.4412,-92.0613,10.0,4.522,65.0,,'11111222,11111222,99999999' 
WAVCIS,ioos:station:WAVCIS:CSI03:3,2011-02-08T13:00:00Z,29.4412,-92.0613,10.0,4.399,71.0,,'11111222,11111222,99999999' 
WAVCIS,ioos:station:WAVCIS:CSI03:3,2011-02-08T14:00:00Z,29.4412,-92.0613,10.0,4.945,62.0,,'11111222,11111222,99999999' 
WAVCIS,ioos:station:WAVCIS:CSI03:3,2011-02-08T15:00:00Z,29.4412,-92.0613,10.0,5.09,67.0,,'11111222,11111222,99999999' 
WAVCIS,ioos:station:WAVCIS:CSI03:3,2011-02-08T16:00:00Z,29.4412,-92.0613,10.0,6.2,87.0,,'11111222,11111222,99999999' 
WAVCIS,ioos:station:WAVCIS:CSI03:3,2011-02-08T17:00:00Z,29.4412,-92.0613,10.0,6.805,105.0,,'11111222,11111222,99999999' 
WAVCIS,ioos:station:WAVCIS:CSI03:3,2011-02-08T18:00:00Z,29.4412,-92.0613,10.0,6.375,112.0,,'11111222,11111222,99999999' 
WAVCIS,ioos:station:WAVCIS:CSI03:3,2011-02-08T19:00:00Z,29.4412,-92.0613,10.0,6.46,131.0,,'11111222,11111222,99999999' 
WAVCIS,ioos:station:WAVCIS:CSI03:3,2011-02-08T20:00:00Z,29.4412,-92.0613,10.0,5.951,126.0,,'11111222,11111222,99999999' 
WAVCIS,ioos:station:WAVCIS:CSI03:3,2011-02-08T21:00:00Z,29.4412,-92.0613,10.0,5.216,123.0,,'11111222,11111222,99999999' 
WAVCIS,ioos:station:WAVCIS:CSI03:3,2011-02-08T22:00:00Z,29.4412,-92.0613,10.0,4.217,122.0,,'11111222,11111222,99999999' 
WAVCIS,ioos:station:WAVCIS:CSI03:3,2011-02-08T23:00:00Z,29.4412,-92.0613,10.0,5.079,145.0,,'11111222,11111222,99999999' 
WAVCIS,ioos:station:WAVCIS:CSI03:3,2011-02-09T00:00:00Z,29.4412,-92.0613,10.0,6.204,134.0,,'11111222,11111222,99999999' 
WAVCIS,ioos:station:WAVCIS:CSI03:3,2011-02-09T01:00:00Z,29.4412,-92.0613,10.0,7.24,144.0,,'11111222,11111222,99999999' 
WAVCIS,ioos:station:WAVCIS:CSI03:3,2011-02-09T02:00:00Z,29.4412,-92.0613,10.0,7.67,132.0,,'11111222,11111222,99999999' 
WAVCIS,ioos:station:WAVCIS:CSI03:3,2011-02-09T03:00:00Z,29.4412,-92.0613,10.0,8.31,130.0,,'11111222,11111222,99999999' 
WAVCIS,ioos:station:WAVCIS:CSI03:3,2011-02-09T04:00:00Z,29.4412,-92.0613,10.0,8.05,132.0,,'11111222,11111222,99999999' 
WAVCIS,ioos:station:WAVCIS:CSI03:3,2011-02-09T05:00:00Z,29.4412,-92.0613,10.0,8.96,125.0,,'11111222,11111222,99999999' 